Regional Weather Roundup
Issued by NWS

Home | Current Version | Previous Version | Graphics & Text | Print | Product List | Glossary On
Versions: 1 2 3 4 5 6 7 8 9 10 11 12 13 14 15 16 17 18 19 20 21 22 23 24 25 26 27 28 29 30 31 32 33 34 35 36 37 38 39 40 41 42 43 44 45 46 47 48 49 50
000
ASUS45 KCYS 190810
RWRWY

WYOMING REGIONAL WEATHER ROUNDUP
NATIONAL WEATHER SERVICE CHEYENNE WY
200 AM MDT FRI SEP 19 2014

NOTE:  "FAIR" INDICATES FEW OR NO CLOUDS BELOW 12,000 FEET
WITH NO SIGNIFICANT WEATHER AND/OR OBSTRUCTIONS TO VISIBILITY.

WYZ001-190900-
YELLOWSTONE NATIONAL PARK

CITY           SKY/WX    TMP DP  RH WIND       PRES   REMARKS
LK YELLOWSTONE   N/A     45  44  97 CALM      30.15F
W YELLOWSTONE  NOT AVBL

$$
WYZ002>013-054>058-071-098>099-190900-
NORTHERN WYOMING

CITY           SKY/WX    TMP DP  RH WIND       PRES   REMARKS
JACKSON        MOCLDY    52  50  93 CALM      30.09R
CODY             N/A    N/A N/A N/A MISG        N/A
GREYBULL       CLOUDY    61  57  87 W5        29.90R
WORLAND        CLOUDY    62  55  77 S9        29.90F
SHERIDAN       CLOUDY    58  55  90 S6        29.85S
BUFFALO        CLOUDY    59  53  80 S8        29.91F
GILLETTE       CLOUDY    60  52  74 W9        29.90R
HULETT         FAIR      61  52  72 MISG      29.88
NEWCASTLE      FAIR      64  46  52 N13       29.82

$$
WYZ014>020-022>026-101>103-190900-
CENTRAL WYOMING

CITY           SKY/WX    TMP DP  RH WIND       PRES   REMARKS
BIG PINEY      CLOUDY    57  45  64 NW12      30.13R
PINEDALE       CLOUDY    52  46  82 N7        30.11F
DUBOIS         FAIR      52  43  71 NW10G16   30.07R
LANDER         CLOUDY    61  47  59 SE6       29.97F
RIVERTON       CLOUDY    64  45  49 W14       29.98F
CASPER         PTCLDY    56  46  69 NE3       29.98R
DOUGLAS        PTCLDY    62  47  57 NW13      29.94R

$$
WYZ021-027>030-104>119-190900-
SOUTHERN WYOMING

CITY           SKY/WX    TMP DP  RH WIND       PRES   REMARKS
EVANSTON       CLOUDY    52  48  86 S7        30.15S
KEMMERER       CLOUDY    55  43  62 N3        30.15R
FORT BRIDGER   CLOUDY    56  50  79 CALM      30.19R THUNDER
ROCK SPRINGS   CLOUDY    59  42  53 N20G28    30.09S
DIXON          FAIR      50  39  66 CALM      30.09R
RAWLINS        CLEAR     60  35  39 SW8       30.04R
SARATOGA       FAIR      54  36  50 CALM      30.08S
LARAMIE        PTCLDY    51  36  56 S7        30.08R
CHEYENNE       CLEAR     59  41  51 W7        29.99F
TORRINGTON     CLEAR     58  55  90 E7        29.83F
PINE BLUFFS    FAIR      55  41  58 S12       29.93F

$$



USA.gov is the U.S. government's official web portal to all federal, state and local government web resources and services.